Powrót do katalogu

STARLINK-35927

AktywnyŁącznośćVLEO
NORAD 66624·PAYLOAD·🇺🇸 United States

Wystrzelony Nov 23, 2025 z Vandenberg Space Force Base

Loading…

Następne Przeloty (najbliższe 24 godziny)

TLE

ŚwieżeSource: CelesTrak SupGP

Epoka: Sep 14, 2026, 21:40 UTC

1 66624C 25271H   26257.90326389 -.00010687  00000+0 -31579-3 0  2571
2 66624  53.1590 339.5858 0001284  77.3917  40.2378 15.34392073    11

Śledź STARLINK-35927 w czasie rzeczywistym z AllMySat

Download on the App Store